Time,TemperatureF,DewpointF,PressureIn,WindDirection,WindDirectionDegrees,WindSpeedMPH,WindSpeedGustMPH,Humidity,HourlyPrecipIn,Conditions,Clouds,dailyrainin,SoftwareType,DateUTC
2013-07-31 00:00:00,59.0,54.9,29.53,SW,225,2.0,4.0,86,0.00,,,0.00,meteohub,2013-07-31 07:00:00,
2013-07-31 00:05:00,58.8,55.0,29.53,South,180,6.0,6.0,87,0.00,,,0.00,meteohub,2013-07-31 07:05:00,
2013-07-31 00:10:00,58.8,55.0,29.54,SW,225,3.0,3.0,87,0.00,,,0.00,meteohub,2013-07-31 07:10:00,
2013-07-31 00:15:00,58.6,54.9,29.54,SW,225,5.0,6.0,87,0.00,,,0.00,meteohub,2013-07-31 07:15:00,
2013-07-31 00:20:00,58.6,54.9,29.54,South,180,3.0,5.0,87,0.00,,,0.00,meteohub,2013-07-31 07:20:00,
2013-07-31 00:26:00,58.5,54.9,29.54,SW,225,4.0,5.0,88,0.00,,,0.00,meteohub,2013-07-31 07:26:00,
2013-07-31 00:31:00,58.3,54.5,29.54,SW,225,2.0,5.0,87,0.00,,,0.00,meteohub,2013-07-31 07:31:00,
2013-07-31 00:36:00,58.1,54.5,29.55,South,180,2.0,5.0,88,0.00,,,0.00,meteohub,2013-07-31 07:36:00,
2013-07-31 00:41:00,57.9,54.3,29.55,South,180,2.0,5.0,88,0.00,,,0.00,meteohub,2013-07-31 07:41:00,
2013-07-31 00:46:00,57.9,54.7,29.55,SW,225,3.0,5.0,89,0.00,,,0.00,meteohub,2013-07-31 07:46:00,
2013-07-31 00:51:00,57.7,54.5,29.55,South,180,4.0,4.0,89,0.00,,,0.00,meteohub,2013-07-31 07:51:00,
2013-07-31 00:56:00,57.7,54.5,29.55,SW,225,2.0,4.0,89,0.00,,,0.00,meteohub,2013-07-31 07:56:00,
2013-07-31 01:01:00,57.7,54.9,29.54,SW,225,5.0,5.0,90,0.00,,,0.00,meteohub,2013-07-31 08:01:00,
2013-07-31 01:07:00,57.7,54.5,29.55,SW,225,3.0,5.0,89,0.00,,,0.00,meteohub,2013-07-31 08:07:00,
2013-07-31 01:12:00,57.6,54.7,29.54,SW,225,4.0,5.0,90,0.00,,,0.00,meteohub,2013-07-31 08:12:00,
2013-07-31 01:17:00,57.6,54.7,29.55,SW,225,2.0,5.0,90,0.00,,,0.00,meteohub,2013-07-31 08:17:00,
2013-07-31 01:22:00,57.6,54.7,29.54,South,180,2.0,4.0,90,0.00,,,0.00,meteohub,2013-07-31 08:22:00,
2013-07-31 01:27:00,57.4,54.9,29.55,South,180,4.0,4.0,91,0.00,,,0.00,meteohub,2013-07-31 08:27:00,
2013-07-31 01:32:00,57.4,54.9,29.54,SW,225,4.0,5.0,91,0.00,,,0.00,meteohub,2013-07-31 08:32:00,
2013-07-31 01:37:00,57.2,54.7,29.54,SW,225,3.0,5.0,91,0.00,,,0.00,meteohub,2013-07-31 08:37:00,
2013-07-31 01:43:00,57.2,54.7,29.54,SE,135,4.0,4.0,91,0.00,,,0.00,meteohub,2013-07-31 08:43:00,
2013-07-31 01:48:00,57.2,54.7,29.54,SW,225,3.0,4.0,91,0.00,,,0.00,meteohub,2013-07-31 08:48:00,
2013-07-31 01:53:00,57.0,54.7,29.54,SW,225,4.0,8.0,92,0.00,,,0.00,meteohub,2013-07-31 08:53:00,
2013-07-31 01:58:00,57.2,54.7,29.54,SE,135,2.0,8.0,91,0.00,,,0.00,meteohub,2013-07-31 08:58:00,
2013-07-31 02:03:00,57.2,54.7,29.54,SE,135,2.0,8.0,91,0.00,,,0.00,meteohub,2013-07-31 09:03:00,
2013-07-31 02:08:00,57.0,54.7,29.54,SW,225,4.0,6.0,92,0.00,,,0.00,meteohub,2013-07-31 09:08:00,
2013-07-31 02:14:00,57.0,54.7,29.54,SW,225,4.0,5.0,92,0.00,,,0.00,meteohub,2013-07-31 09:14:00,
2013-07-31 02:19:00,57.0,54.7,29.53,SW,225,4.0,4.0,92,0.00,,,0.00,meteohub,2013-07-31 09:19:00,
2013-07-31 02:24:00,57.0,54.7,29.53,SSW,203,3.0,5.0,92,0.00,,,0.00,meteohub,2013-07-31 09:24:00,
2013-07-31 02:29:00,57.0,54.7,29.53,SW,225,2.0,5.0,92,0.00,,,0.00,meteohub,2013-07-31 09:29:00,
2013-07-31 02:34:00,56.8,54.5,29.53,SW,225,2.0,5.0,92,0.00,,,0.00,meteohub,2013-07-31 09:34:00,
2013-07-31 02:39:00,57.0,54.7,29.53,SW,225,4.0,4.0,92,0.00,,,0.00,meteohub,2013-07-31 09:39:00,
2013-07-31 02:44:00,57.2,54.7,29.54,SW,225,2.0,8.0,91,0.00,,,0.00,meteohub,2013-07-31 09:44:00,
2013-07-31 02:50:00,57.0,54.5,29.54,SW,225,2.0,8.0,91,0.00,,,0.00,meteohub,2013-07-31 09:50:00,
2013-07-31 02:55:00,56.8,54.5,29.54,South,180,1.0,8.0,92,0.00,,,0.00,meteohub,2013-07-31 09:55:00,
2013-07-31 03:00:00,56.7,54.3,29.54,SW,225,1.0,5.0,92,0.00,,,0.00,meteohub,2013-07-31 10:00:00,
2013-07-31 03:05:00,56.7,54.3,29.54,SW,225,2.0,4.0,92,0.00,,,0.00,meteohub,2013-07-31 10:05:00,
2013-07-31 03:10:00,56.3,54.0,29.54,SW,225,1.0,3.0,92,0.00,,,0.00,meteohub,2013-07-31 10:10:00,
2013-07-31 03:15:00,56.1,53.8,29.54,SW,225,2.0,3.0,92,0.00,,,0.00,meteohub,2013-07-31 10:15:00,
2013-07-31 03:20:00,55.9,54.0,29.54,SW,225,1.0,2.0,93,0.00,,,0.00,meteohub,2013-07-31 10:20:00,
2013-07-31 03:25:00,55.9,54.3,29.54,SW,225,3.0,3.0,94,0.00,,,0.00,meteohub,2013-07-31 10:25:00,
2013-07-31 03:30:00,55.9,54.0,29.54,SW,225,1.0,3.0,93,0.00,,,0.00,meteohub,2013-07-31 10:30:00,
2013-07-31 03:36:00,55.9,54.0,29.54,West,270,0.0,3.0,93,0.00,,,0.00,meteohub,2013-07-31 10:36:00,
2013-07-31 03:41:00,55.9,54.0,29.54,SW,225,0.0,3.0,93,0.00,,,0.00,meteohub,2013-07-31 10:41:00,
2013-07-31 03:46:00,55.9,54.3,29.54,SW,225,2.0,2.0,94,0.00,,,0.00,meteohub,2013-07-31 10:46:00,
2013-07-31 03:51:00,55.9,54.0,29.54,SW,225,0.0,2.0,93,0.00,,,0.00,meteohub,2013-07-31 10:51:00,
2013-07-31 03:56:00,55.9,54.0,29.54,SW,225,1.0,2.0,93,0.00,,,0.00,meteohub,2013-07-31 10:56:00,
2013-07-31 04:01:00,55.8,53.8,29.55,SW,225,0.0,2.0,93,0.00,,,0.00,meteohub,2013-07-31 11:01:00,
2013-07-31 04:06:00,55.4,53.4,29.54,SW,225,0.0,2.0,93,0.00,,,0.00,meteohub,2013-07-31 11:06:00,
2013-07-31 04:12:00,55.4,53.4,29.54,SW,225,0.0,2.0,93,0.00,,,0.00,meteohub,2013-07-31 11:12:00,
2013-07-31 04:17:00,55.2,53.6,29.54,SW,225,0.0,0.0,94,0.00,,,0.00,meteohub,2013-07-31 11:17:00,
2013-07-31 04:22:00,55.2,53.6,29.55,SW,225,0.0,0.0,94,0.00,,,0.00,meteohub,2013-07-31 11:22:00,
2013-07-31 04:27:00,55.0,53.4,29.55,SW,225,0.0,0.0,94,0.00,,,0.00,meteohub,2013-07-31 11:27:00,
2013-07-31 04:32:00,54.9,53.2,29.55,NW,315,0.0,0.0,94,0.00,,,0.00,meteohub,2013-07-31 11:32:00,
2013-07-31 04:37:00,54.9,53.2,29.54,SW,225,0.0,0.0,94,0.00,,,0.00,meteohub,2013-07-31 11:37:00,
2013-07-31 04:42:00,54.9,53.4,29.54,SW,225,0.0,0.0,95,0.00,,,0.00,meteohub,2013-07-31 11:42:00,
2013-07-31 04:47:00,54.9,53.8,29.54,SW,225,2.0,0.0,96,0.00,,,0.00,meteohub,2013-07-31 11:47:00,
2013-07-31 04:52:00,55.0,54.0,29.55,SW,225,1.0,2.0,96,0.00,,,0.00,meteohub,2013-07-31 11:52:00,
2013-07-31 04:57:00,55.0,54.0,29.54,SW,225,0.0,2.0,96,0.00,,,0.00,meteohub,2013-07-31 11:57:00,
2013-07-31 05:02:00,55.0,54.0,29.54,SW,225,2.0,2.0,96,0.00,,,0.00,meteohub,2013-07-31 12:02:00,
2013-07-31 05:07:00,55.2,54.1,29.54,SW,225,0.0,2.0,96,0.00,,,0.00,meteohub,2013-07-31 12:07:00,
2013-07-31 05:13:00,55.2,53.8,29.55,SW,225,0.0,2.0,95,0.00,,,0.00,meteohub,2013-07-31 12:13:00,
2013-07-31 05:18:00,55.2,54.1,29.54,North,0,0.0,2.0,96,0.00,,,0.00,meteohub,2013-07-31 12:18:00,
2013-07-31 05:23:00,55.2,54.1,29.54,North,0,0.0,1.0,96,0.00,,,0.00,meteohub,2013-07-31 12:23:00,
2013-07-31 05:28:00,55.2,54.1,29.54,North,0,0.0,1.0,96,0.00,,,0.00,meteohub,2013-07-31 12:28:00,
2013-07-31 05:33:00,55.2,53.8,29.54,North,0,0.0,1.0,95,0.00,,,0.00,meteohub,2013-07-31 12:33:00,
2013-07-31 05:38:00,55.2,54.1,29.55,SW,225,1.0,0.0,96,0.00,,,0.00,meteohub,2013-07-31 12:38:00,
2013-07-31 05:43:00,55.2,54.1,29.55,SW,225,2.0,2.0,96,0.00,,,0.00,meteohub,2013-07-31 12:43:00,
2013-07-31 05:49:00,55.4,54.3,29.54,East,90,0.0,2.0,96,0.00,,,0.00,meteohub,2013-07-31 12:49:00,
2013-07-31 05:54:00,55.4,54.3,29.54,East,90,0.0,2.0,96,0.00,,,0.00,meteohub,2013-07-31 12:54:00,
2013-07-31 05:59:00,55.2,54.1,29.54,East,90,0.0,2.0,96,0.00,,,0.00,meteohub,2013-07-31 12:59:00,
2013-07-31 06:04:00,55.2,54.1,29.55,East,90,0.0,2.0,96,0.00,,,0.00,meteohub,2013-07-31 13:04:00,
2013-07-31 06:09:00,55.0,54.0,29.54,East,90,0.0,0.0,96,0.00,,,0.00,meteohub,2013-07-31 13:09:00,
2013-07-31 06:14:00,55.0,54.0,29.54,SW,225,0.0,0.0,96,0.00,,,0.00,meteohub,2013-07-31 13:14:00,
2013-07-31 06:19:00,55.2,54.1,29.54,SW,225,0.0,2.0,96,0.00,,,0.00,meteohub,2013-07-31 13:19:00,
2013-07-31 06:25:00,55.2,54.1,29.54,SW,225,0.0,2.0,96,0.00,,,0.00,meteohub,2013-07-31 13:25:00,
2013-07-31 06:30:00,55.6,54.7,29.54,NE,45,2.0,2.0,97,0.00,,,0.00,meteohub,2013-07-31 13:30:00,
2013-07-31 06:35:00,55.9,54.9,29.54,NE,45,0.0,1.0,96,0.00,,,0.00,meteohub,2013-07-31 13:35:00,
2013-07-31 06:40:00,55.8,54.3,29.54,NE,45,0.0,2.0,95,0.00,,,0.00,meteohub,2013-07-31 13:40:00,
2013-07-31 06:45:00,56.1,54.7,29.54,NE,45,2.0,2.0,95,0.00,,,0.00,meteohub,2013-07-31 13:45:00,
2013-07-31 06:50:00,56.5,55.0,29.54,NE,45,2.0,2.0,95,0.00,,,0.00,meteohub,2013-07-31 13:50:00,
2013-07-31 06:55:00,56.7,55.0,29.54,North,0,2.0,2.0,94,0.00,,,0.00,meteohub,2013-07-31 13:55:00,
2013-07-31 07:01:00,56.8,55.2,29.54,North,0,2.0,3.0,94,0.00,,,0.00,meteohub,2013-07-31 14:01:00,
2013-07-31 07:06:00,57.0,55.2,29.54,NE,45,3.0,3.0,94,0.00,,,0.00,meteohub,2013-07-31 14:06:00,
2013-07-31 07:11:00,57.0,55.0,29.54,NE,45,2.0,3.0,93,0.00,,,0.00,meteohub,2013-07-31 14:11:00,
2013-07-31 07:16:00,57.2,55.2,29.54,East,90,3.0,3.0,93,0.00,,,0.00,meteohub,2013-07-31 14:16:00,
2013-07-31 07:21:00,57.4,55.4,29.54,North,0,2.0,3.0,93,0.00,,,0.00,meteohub,2013-07-31 14:21:00,
2013-07-31 07:26:00,57.6,55.2,29.54,NE,45,1.0,3.0,92,0.00,,,0.00,meteohub,2013-07-31 14:26:00,
2013-07-31 07:31:00,57.9,55.6,29.54,South,180,0.0,3.0,92,0.00,,,0.00,meteohub,2013-07-31 14:31:00,
2013-07-31 07:37:00,57.9,55.2,29.54,East,90,1.0,3.0,91,0.00,,,0.00,meteohub,2013-07-31 14:37:00,
2013-07-31 07:42:00,57.9,55.2,29.54,North,0,2.0,3.0,91,0.00,,,0.00,meteohub,2013-07-31 14:42:00,
2013-07-31 07:47:00,57.9,55.2,29.54,East,90,0.0,3.0,91,0.00,,,0.00,meteohub,2013-07-31 14:47:00,
2013-07-31 07:52:00,58.5,55.8,29.55,SW,225,0.0,3.0,91,0.00,,,0.00,meteohub,2013-07-31 14:52:00,
2013-07-31 07:57:00,58.8,56.1,29.55,SW,225,4.0,4.0,91,0.00,,,0.00,meteohub,2013-07-31 14:57:00,
2013-07-31 08:02:00,58.5,55.8,29.55,SW,225,2.0,4.0,91,0.00,,,0.00,meteohub,2013-07-31 15:02:00,
2013-07-31 08:08:00,58.5,55.8,29.55,SW,225,2.0,4.0,91,0.00,,,0.00,meteohub,2013-07-31 15:08:00,
2013-07-31 08:13:00,58.8,56.1,29.55,SW,225,1.0,4.0,91,0.00,,,0.00,meteohub,2013-07-31 15:13:00,
2013-07-31 08:18:00,59.2,56.3,29.55,SW,225,4.0,4.0,90,0.00,,,0.00,meteohub,2013-07-31 15:18:00,
2013-07-31 08:23:00,59.4,56.5,29.56,SW,225,1.0,4.0,90,0.00,,,0.00,meteohub,2013-07-31 15:23:00,
2013-07-31 08:28:00,59.9,57.0,29.56,North,0,3.0,4.0,90,0.00,,,0.00,meteohub,2013-07-31 15:28:00,
2013-07-31 08:34:00,60.6,56.7,29.56,West,270,4.0,4.0,87,0.00,,,0.00,meteohub,2013-07-31 15:34:00,
2013-07-31 08:39:00,59.9,56.3,29.55,SW,225,2.0,4.0,88,0.00,,,0.00,meteohub,2013-07-31 15:39:00,
2013-07-31 08:44:00,59.7,56.5,29.56,SW,225,2.0,4.0,89,0.00,,,0.00,meteohub,2013-07-31 15:44:00,
2013-07-31 08:49:00,60.1,56.5,29.56,West,270,2.0,5.0,88,0.00,,,0.00,meteohub,2013-07-31 15:49:00,
2013-07-31 08:55:00,60.8,56.8,29.56,SE,135,2.0,5.0,87,0.00,,,0.00,meteohub,2013-07-31 15:55:00,
2013-07-31 09:00:00,61.2,57.2,29.56,SE,135,2.0,5.0,87,0.00,,,0.00,meteohub,2013-07-31 16:00:00,
2013-07-31 09:05:00,61.3,56.8,29.56,SE,135,2.0,3.0,85,0.00,,,0.00,meteohub,2013-07-31 16:05:00,
2013-07-31 09:10:00,61.2,56.3,29.55,SW,225,4.0,4.0,84,0.00,,,0.00,meteohub,2013-07-31 16:10:00,
2013-07-31 09:15:00,61.2,56.7,29.55,West,270,2.0,4.0,85,0.00,,,0.00,meteohub,2013-07-31 16:15:00,
2013-07-31 09:20:00,61.2,56.7,29.55,South,180,3.0,4.0,85,0.00,,,0.00,meteohub,2013-07-31 16:20:00,
2013-07-31 09:26:00,61.3,56.8,29.55,SW,225,4.0,4.0,85,0.00,,,0.00,meteohub,2013-07-31 16:26:00,
2013-07-31 09:31:00,61.5,57.0,29.55,East,90,2.0,4.0,85,0.00,,,0.00,meteohub,2013-07-31 16:31:00,
2013-07-31 09:36:00,63.0,57.7,29.54,South,180,1.0,4.0,83,0.00,,,0.00,meteohub,2013-07-31 16:36:00,
2013-07-31 09:41:00,64.0,58.5,29.54,North,0,0.0,4.0,82,0.00,,,0.00,meteohub,2013-07-31 16:41:00,
2013-07-31 09:47:00,64.9,57.6,29.54,SSW,203,4.0,4.0,77,0.00,,,0.00,meteohub,2013-07-31 16:47:00,
2013-07-31 09:52:00,65.1,57.7,29.54,South,180,2.0,5.0,77,0.00,,,0.00,meteohub,2013-07-31 16:52:00,
2013-07-31 09:57:00,66.0,58.6,29.53,NW,315,2.0,5.0,77,0.00,,,0.00,meteohub,2013-07-31 16:57:00,
2013-07-31 10:02:00,66.9,57.9,29.54,NE,45,4.0,5.0,73,0.00,,,0.00,meteohub,2013-07-31 17:02:00,
2013-07-31 10:08:00,66.6,57.6,29.54,NE,45,4.0,4.0,73,0.00,,,0.00,meteohub,2013-07-31 17:08:00,
2013-07-31 10:13:00,66.7,57.7,29.54,South,180,2.0,4.0,73,0.00,,,0.00,meteohub,2013-07-31 17:13:00,
2013-07-31 10:18:00,68.5,58.8,29.54,South,180,2.0,4.0,71,0.00,,,0.00,meteohub,2013-07-31 17:18:00,
2013-07-31 10:23:00,69.3,59.5,29.53,West,270,2.0,4.0,71,0.00,,,0.00,meteohub,2013-07-31 17:23:00,
2013-07-31 10:29:00,68.7,58.1,29.54,South,180,5.0,5.0,69,0.00,,,0.00,meteohub,2013-07-31 17:29:00,
2013-07-31 10:34:00,66.6,58.5,29.54,SW,225,2.0,4.0,75,0.00,,,0.00,meteohub,2013-07-31 17:34:00,
2013-07-31 10:39:00,65.8,58.1,29.54,SW,225,3.0,7.0,76,0.00,,,0.00,meteohub,2013-07-31 17:39:00,
2013-07-31 10:44:00,66.0,58.3,29.54,SE,135,2.0,7.0,76,0.00,,,0.00,meteohub,2013-07-31 17:44:00,
2013-07-31 10:49:00,66.2,58.1,29.54,SW,225,3.0,7.0,75,0.00,,,0.00,meteohub,2013-07-31 17:49:00,
2013-07-31 10:54:00,65.8,58.1,29.54,West,270,4.0,4.0,76,0.00,,,0.00,meteohub,2013-07-31 17:54:00,
2013-07-31 10:59:00,65.3,57.9,29.53,SW,225,3.0,4.0,77,0.00,,,0.00,meteohub,2013-07-31 17:59:00,
2013-07-31 11:04:00,65.8,58.1,29.53,NW,315,1.0,6.0,76,0.00,,,0.00,meteohub,2013-07-31 18:04:00,
2013-07-31 11:09:00,66.7,58.1,29.53,North,0,6.0,6.0,74,0.00,,,0.00,meteohub,2013-07-31 18:09:00,
2013-07-31 13:19:00,71.4,59.5,29.50,SW,225,8.0,13.0,66,0.00,,,0.00,meteohub,2013-07-31 20:19:00,
2013-07-31 13:24:00,71.8,60.3,29.50,SW,225,6.0,11.0,67,0.00,,,0.00,meteohub,2013-07-31 20:24:00,
2013-07-31 13:29:00,72.9,59.5,29.50,NW,315,12.0,12.0,63,0.00,,,0.00,meteohub,2013-07-31 20:29:00,
2013-07-31 13:34:00,73.6,59.7,29.50,SW,225,8.0,13.0,62,0.00,,,0.00,meteohub,2013-07-31 20:34:00,
2013-07-31 13:39:00,73.9,60.6,29.50,South,180,4.0,13.0,63,0.00,,,0.00,meteohub,2013-07-31 20:39:00,
2013-07-31 13:44:00,74.1,60.3,29.50,South,180,7.0,13.0,62,0.00,,,0.00,meteohub,2013-07-31 20:44:00,
2013-07-31 13:49:00,74.8,61.0,29.49,SW,225,4.0,8.0,62,0.00,,,0.00,meteohub,2013-07-31 20:49:00,
2013-07-31 13:54:00,76.1,60.3,29.49,South,180,8.0,8.0,58,0.00,,,0.00,meteohub,2013-07-31 20:54:00,
2013-07-31 13:59:00,76.5,60.6,29.49,South,180,5.0,8.0,58,0.00,,,0.00,meteohub,2013-07-31 20:59:00,
2013-07-31 14:04:00,75.7,59.9,29.49,SW,225,8.0,8.0,58,0.00,,,0.00,meteohub,2013-07-31 21:04:00,
2013-07-31 14:09:00,75.6,60.3,29.49,South,180,8.0,8.0,59,0.00,,,0.00,meteohub,2013-07-31 21:09:00,
2013-07-31 14:15:00,75.4,60.4,29.49,SW,225,8.0,8.0,60,0.00,,,0.00,meteohub,2013-07-31 21:15:00,
2013-07-31 14:20:00,75.9,60.1,29.49,SE,135,8.0,9.0,58,0.00,,,0.00,meteohub,2013-07-31 21:20:00,
2013-07-31 14:25:00,75.6,61.2,29.49,South,180,2.0,11.0,61,0.00,,,0.00,meteohub,2013-07-31 21:25:00,
2013-07-31 14:30:00,76.8,61.0,29.48,SW,225,7.0,11.0,58,0.00,,,0.00,meteohub,2013-07-31 21:30:00,
2013-07-31 14:35:00,78.3,60.3,29.49,SW,225,9.0,11.0,54,0.00,,,0.00,meteohub,2013-07-31 21:35:00,
2013-07-31 14:40:00,75.6,60.3,29.49,SW,225,5.0,11.0,59,0.00,,,0.00,meteohub,2013-07-31 21:40:00,
2013-07-31 14:45:00,73.9,59.7,29.48,SW,225,6.0,11.0,61,0.00,,,0.00,meteohub,2013-07-31 21:45:00,
2013-07-31 14:51:00,73.0,59.2,29.48,SW,225,7.0,11.0,62,0.00,,,0.00,meteohub,2013-07-31 21:51:00,
2013-07-31 14:56:00,74.1,58.8,29.49,SW,225,14.0,14.0,59,0.00,,,0.00,meteohub,2013-07-31 21:56:00,
2013-07-31 15:05:00,74.7,59.4,29.49,SW,225,8.0,14.0,59,0.00,,,0.00,meteohub,2013-07-31 22:05:00,
2013-07-31 15:10:00,71.2,58.8,29.49,SW,225,10.0,14.0,65,0.00,,,0.00,meteohub,2013-07-31 22:10:00,
2013-07-31 15:15:00,72.9,59.9,29.49,South,180,8.0,15.0,64,0.00,,,0.00,meteohub,2013-07-31 22:15:00,
2013-07-31 15:20:00,74.3,59.5,29.49,SW,225,8.0,15.0,60,0.00,,,0.00,meteohub,2013-07-31 22:20:00,
2013-07-31 15:25:00,73.9,59.2,29.49,SW,225,6.0,15.0,60,0.00,,,0.00,meteohub,2013-07-31 22:25:00,
2013-07-31 15:30:00,72.9,59.0,29.49,SW,225,5.0,15.0,62,0.00,,,0.00,meteohub,2013-07-31 22:30:00,
2013-07-31 15:36:00,74.5,59.2,29.48,South,180,10.0,12.0,59,0.00,,,0.00,meteohub,2013-07-31 22:36:00,
2013-07-31 15:41:00,74.8,59.5,29.48,SW,225,8.0,14.0,59,0.00,,,0.00,meteohub,2013-07-31 22:41:00,
2013-07-31 15:46:00,74.5,59.7,29.48,South,180,7.0,14.0,60,0.00,,,0.00,meteohub,2013-07-31 22:46:00,
2013-07-31 15:51:00,74.5,59.7,29.48,SW,225,11.0,14.0,60,0.00,,,0.00,meteohub,2013-07-31 22:51:00,
2013-07-31 15:56:00,74.8,59.5,29.48,West,270,7.0,11.0,59,0.00,,,0.00,meteohub,2013-07-31 22:56:00,
2013-07-31 16:01:00,75.7,59.4,29.47,SW,225,12.0,12.0,57,0.00,,,0.00,meteohub,2013-07-31 23:01:00,
2013-07-31 16:07:00,73.9,59.2,29.48,South,180,11.0,12.0,60,0.00,,,0.00,meteohub,2013-07-31 23:07:00,
2013-07-31 16:12:00,73.9,59.7,29.47,SW,225,5.0,12.0,61,0.00,,,0.00,meteohub,2013-07-31 23:12:00,
2013-07-31 16:17:00,73.9,59.2,29.47,NE,45,9.0,12.0,60,0.00,,,0.00,meteohub,2013-07-31 23:17:00,
2013-07-31 16:22:00,74.1,59.4,29.47,SW,225,6.0,11.0,60,0.00,,,0.00,meteohub,2013-07-31 23:22:00,
2013-07-31 16:27:00,74.5,59.7,29.48,SSW,203,6.0,10.0,60,0.00,,,0.00,meteohub,2013-07-31 23:27:00,
2013-07-31 16:33:00,73.9,59.7,29.47,South,180,7.0,9.0,61,0.00,,,0.00,meteohub,2013-07-31 23:33:00,
2013-07-31 16:38:00,73.0,59.2,29.48,SW,225,6.0,10.0,62,0.00,,,0.00,meteohub,2013-07-31 23:38:00,
2013-07-31 16:43:00,73.0,59.2,29.48,SW,225,6.0,10.0,62,0.00,,,0.00,meteohub,2013-07-31 23:43:00,
2013-07-31 16:49:00,73.4,59.2,29.48,SW,225,8.0,11.0,61,0.00,,,0.00,meteohub,2013-07-31 23:49:00,
2013-07-31 16:54:00,73.0,59.2,29.49,South,180,7.0,11.0,62,0.00,,,0.00,meteohub,2013-07-31 23:54:00,
2013-07-31 16:59:00,73.2,59.0,29.48,South,180,7.0,11.0,61,0.00,,,0.00,meteohub,2013-07-31 23:59:00,
2013-07-31 17:04:00,73.4,58.6,29.48,South,180,8.0,11.0,60,0.00,,,0.00,meteohub,2013-08-01 00:04:00,
2013-07-31 17:09:00,74.1,58.8,29.48,South,180,8.0,10.0,59,0.00,,,0.00,meteohub,2013-08-01 00:09:00,
2013-07-31 17:14:00,73.6,58.8,29.49,SE,135,12.0,12.0,60,0.00,,,0.00,meteohub,2013-08-01 00:14:00,
2013-07-31 17:19:00,73.4,59.2,29.48,South,180,5.0,12.0,61,0.00,,,0.00,meteohub,2013-08-01 00:19:00,
2013-07-31 17:24:00,73.6,58.8,29.48,SW,225,7.0,12.0,60,0.00,,,0.00,meteohub,2013-08-01 00:24:00,
2013-07-31 17:30:00,74.1,58.8,29.49,NE,45,6.0,12.0,59,0.00,,,0.00,meteohub,2013-08-01 00:30:00,
2013-07-31 17:35:00,73.2,58.5,29.48,SE,135,10.0,11.0,60,0.00,,,0.00,meteohub,2013-08-01 00:35:00,
2013-07-31 17:40:00,73.0,59.2,29.49,South,180,8.0,12.0,62,0.00,,,0.00,meteohub,2013-08-01 00:40:00,
2013-07-31 17:45:00,73.4,59.2,29.49,SW,225,4.0,12.0,61,0.00,,,0.00,meteohub,2013-08-01 00:45:00,
2013-07-31 17:50:00,73.2,58.5,29.49,West,270,4.0,10.0,60,0.00,,,0.00,meteohub,2013-08-01 00:50:00,
2013-07-31 17:55:00,71.8,58.5,29.49,SSW,203,4.0,8.0,63,0.00,,,0.00,meteohub,2013-08-01 00:55:00,
2013-07-31 18:00:00,72.0,58.3,29.48,South,180,8.0,8.0,62,0.00,,,0.00,meteohub,2013-08-01 01:00:00,
2013-07-31 18:05:00,71.8,58.5,29.48,SW,225,6.0,8.0,63,0.00,,,0.00,meteohub,2013-08-01 01:05:00,
2013-07-31 18:11:00,72.1,58.5,29.47,South,180,7.0,11.0,62,0.00,,,0.00,meteohub,2013-08-01 01:11:00,
2013-07-31 18:16:00,72.1,58.5,29.47,South,180,8.0,11.0,62,0.00,,,0.00,meteohub,2013-08-01 01:16:00,
2013-07-31 18:22:00,71.1,58.3,29.47,SW,225,5.0,14.0,64,0.00,,,0.00,meteohub,2013-08-01 01:22:00,
2013-07-31 18:27:00,70.7,57.9,29.47,South,180,8.0,14.0,64,0.00,,,0.00,meteohub,2013-08-01 01:27:00,
2013-07-31 18:32:00,70.0,57.7,29.47,South,180,5.0,14.0,65,0.00,,,0.00,meteohub,2013-08-01 01:32:00,
2013-07-31 18:37:00,69.6,57.7,29.47,West,270,7.0,12.0,66,0.00,,,0.00,meteohub,2013-08-01 01:37:00,
2013-07-31 18:42:00,68.5,57.6,29.47,South,180,11.0,11.0,68,0.00,,,0.00,meteohub,2013-08-01 01:42:00,
2013-07-31 18:47:00,68.2,57.6,29.47,SSW,203,4.0,11.0,69,0.00,,,0.00,meteohub,2013-08-01 01:47:00,
2013-07-31 18:52:00,67.8,57.2,29.47,SW,225,7.0,11.0,69,0.00,,,0.00,meteohub,2013-08-01 01:52:00,
2013-07-31 18:57:00,67.3,57.2,29.47,SW,225,5.0,11.0,70,0.00,,,0.00,meteohub,2013-08-01 01:57:00,
2013-07-31 19:02:00,66.7,57.0,29.47,SW,225,6.0,13.0,71,0.00,,,0.00,meteohub,2013-08-01 02:02:00,
2013-07-31 19:07:00,66.2,56.8,29.47,SW,225,8.0,13.0,72,0.00,,,0.00,meteohub,2013-08-01 02:07:00,
2013-07-31 19:12:00,65.5,56.7,29.47,SW,225,8.0,13.0,73,0.00,,,0.00,meteohub,2013-08-01 02:12:00,
2013-07-31 19:17:00,64.6,56.5,29.47,SW,225,10.0,13.0,75,0.00,,,0.00,meteohub,2013-08-01 02:17:00,
2013-07-31 19:23:00,63.7,56.3,29.47,SW,225,8.0,13.0,77,0.00,,,0.00,meteohub,2013-08-01 02:23:00,
2013-07-31 19:28:00,63.1,56.1,29.47,SW,225,7.0,13.0,78,0.00,,,0.00,meteohub,2013-08-01 02:28:00,
2013-07-31 19:33:00,63.0,55.9,29.47,West,270,5.0,12.0,78,0.00,,,0.00,meteohub,2013-08-01 02:33:00,
2013-07-31 19:38:00,62.2,55.6,29.47,South,180,8.0,12.0,79,0.00,,,0.00,meteohub,2013-08-01 02:38:00,
2013-07-31 19:44:00,61.7,55.4,29.47,SW,225,8.0,11.0,80,0.00,,,0.00,meteohub,2013-08-01 02:44:00,
2013-07-31 19:49:00,61.3,55.4,29.48,South,180,7.0,13.0,81,0.00,,,0.00,meteohub,2013-08-01 02:49:00,
2013-07-31 19:54:00,61.2,55.6,29.47,South,180,8.0,13.0,82,0.00,,,0.00,meteohub,2013-08-01 02:54:00,
2013-07-31 19:59:00,60.8,55.2,29.48,SW,225,7.0,13.0,82,0.00,,,0.00,meteohub,2013-08-01 02:59:00,
2013-07-31 20:04:00,60.6,55.4,29.47,South,180,7.0,13.0,83,0.00,,,0.00,meteohub,2013-08-01 03:04:00,
2013-07-31 20:09:00,60.4,55.2,29.48,SW,225,5.0,11.0,83,0.00,,,0.00,meteohub,2013-08-01 03:09:00,
2013-07-31 20:14:00,60.1,55.2,29.48,SW,225,4.0,12.0,84,0.00,,,0.00,meteohub,2013-08-01 03:14:00,
2013-07-31 20:20:00,59.9,55.0,29.48,SW,225,8.0,12.0,84,0.00,,,0.00,meteohub,2013-08-01 03:20:00,
2013-07-31 20:25:00,59.7,55.2,29.48,SW,225,6.0,12.0,85,0.00,,,0.00,meteohub,2013-08-01 03:25:00,
2013-07-31 20:30:00,59.5,55.0,29.48,South,180,5.0,10.0,85,0.00,,,0.00,meteohub,2013-08-01 03:30:00,
2013-07-31 20:35:00,59.4,54.9,29.48,SW,225,6.0,10.0,85,0.00,,,0.00,meteohub,2013-08-01 03:35:00,
2013-07-31 20:40:00,59.2,55.0,29.48,SW,225,7.0,10.0,86,0.00,,,0.00,meteohub,2013-08-01 03:40:00,
2013-07-31 20:45:00,59.2,55.0,29.49,SW,225,6.0,8.0,86,0.00,,,0.00,meteohub,2013-08-01 03:45:00,
2013-07-31 20:51:00,59.0,54.9,29.49,SW,225,4.0,10.0,86,0.00,,,0.00,meteohub,2013-08-01 03:51:00,
2013-07-31 20:56:00,59.0,55.2,29.48,SW,225,10.0,10.0,87,0.00,,,0.00,meteohub,2013-08-01 03:56:00,
2013-07-31 21:01:00,58.8,55.0,29.49,South,180,8.0,10.0,87,0.00,,,0.00,meteohub,2013-08-01 04:01:00,
2013-07-31 21:02:00,58.8,55.0,29.49,South,180,3.0,10.0,87,0.00,,,0.00,meteohub,2013-08-01 04:02:00,
2013-07-31 21:03:00,58.8,55.0,29.49,South,180,8.0,10.0,87,0.00,,,0.00,meteohub,2013-08-01 04:03:00,
2013-07-31 21:06:00,58.8,55.0,29.49,SW,225,4.0,10.0,87,0.00,,,0.00,meteohub,2013-08-01 04:06:00,
2013-07-31 21:11:00,58.5,54.7,29.49,South,180,8.0,10.0,87,0.00,,,0.00,meteohub,2013-08-01 04:11:00,
2013-07-31 21:17:00,58.5,54.9,29.49,South,180,6.0,8.0,88,0.00,,,0.00,meteohub,2013-08-01 04:17:00,
2013-07-31 21:22:00,58.3,54.7,29.49,South,180,12.0,12.0,88,0.00,,,0.00,meteohub,2013-08-01 04:22:00,
2013-07-31 21:27:00,58.1,54.5,29.49,SW,225,6.0,12.0,88,0.00,,,0.00,meteohub,2013-08-01 04:27:00,
2013-07-31 21:32:00,58.1,54.5,29.49,South,180,4.0,12.0,88,0.00,,,0.00,meteohub,2013-08-01 04:32:00,
2013-07-31 21:37:00,57.9,54.3,29.49,SW,225,5.0,12.0,88,0.00,,,0.00,meteohub,2013-08-01 04:37:00,
2013-07-31 21:42:00,57.7,54.5,29.49,SW,225,8.0,11.0,89,0.00,,,0.00,meteohub,2013-08-01 04:42:00,
2013-07-31 21:47:00,57.7,54.5,29.49,SW,225,4.0,9.0,89,0.00,,,0.00,meteohub,2013-08-01 04:47:00,
2013-07-31 21:52:00,57.6,54.7,29.49,South,180,4.0,8.0,90,0.00,,,0.00,meteohub,2013-08-01 04:52:00,
2013-07-31 21:57:00,57.6,54.7,29.49,South,180,4.0,8.0,90,0.00,,,0.00,meteohub,2013-08-01 04:57:00,
2013-07-31 22:02:00,57.4,54.5,29.49,SW,225,5.0,10.0,90,0.00,,,0.00,meteohub,2013-08-01 05:02:00,
2013-07-31 22:07:00,57.4,54.5,29.49,SW,225,8.0,10.0,90,0.00,,,0.00,meteohub,2013-08-01 05:07:00,
2013-07-31 22:12:00,57.2,54.7,29.49,SW,225,7.0,8.0,91,0.00,,,0.00,meteohub,2013-08-01 05:12:00,
2013-07-31 22:18:00,57.2,54.7,29.49,South,180,8.0,8.0,91,0.00,,,0.00,meteohub,2013-08-01 05:18:00,
2013-07-31 22:23:00,57.2,54.7,29.49,SW,225,8.0,8.0,91,0.00,,,0.00,meteohub,2013-08-01 05:23:00,
2013-07-31 22:28:00,57.2,54.7,29.49,SW,225,6.0,8.0,91,0.00,,,0.00,meteohub,2013-08-01 05:28:00,
2013-07-31 22:33:00,57.2,54.7,29.50,South,180,5.0,8.0,91,0.00,,,0.00,meteohub,2013-08-01 05:33:00,
2013-07-31 22:38:00,57.4,54.5,29.50,South,180,4.0,8.0,90,0.00,,,0.00,meteohub,2013-08-01 05:38:00,
2013-07-31 22:43:00,57.4,54.5,29.50,South,180,6.0,9.0,90,0.00,,,0.00,meteohub,2013-08-01 05:43:00,
2013-07-31 22:49:00,57.6,54.7,29.50,South,180,7.0,9.0,90,0.00,,,0.00,meteohub,2013-08-01 05:49:00,
2013-07-31 22:54:00,57.6,54.7,29.50,South,180,4.0,9.0,90,0.00,,,0.00,meteohub,2013-08-01 05:54:00,
2013-07-31 22:59:00,57.6,54.3,29.49,South,180,4.0,8.0,89,0.00,,,0.00,meteohub,2013-08-01 05:59:00,
2013-07-31 23:04:00,57.6,54.3,29.50,South,180,5.0,8.0,89,0.00,,,0.00,meteohub,2013-08-01 06:04:00,
2013-07-31 23:09:00,57.6,54.3,29.50,South,180,8.0,8.0,89,0.00,,,0.00,meteohub,2013-08-01 06:09:00,
2013-07-31 23:14:00,57.4,54.1,29.50,South,180,5.0,10.0,89,0.00,,,0.00,meteohub,2013-08-01 06:14:00,
2013-07-31 23:19:00,57.6,54.3,29.50,South,180,8.0,10.0,89,0.00,,,0.00,meteohub,2013-08-01 06:19:00,
2013-07-31 23:25:00,57.7,54.1,29.50,SW,225,4.0,10.0,88,0.00,,,0.00,meteohub,2013-08-01 06:25:00,
2013-07-31 23:30:00,57.7,54.1,29.49,SSW,203,4.0,11.0,88,0.00,,,0.00,meteohub,2013-08-01 06:30:00,
2013-07-31 23:35:00,57.7,54.1,29.49,SW,225,6.0,11.0,88,0.00,,,0.00,meteohub,2013-08-01 06:35:00,
2013-07-31 23:40:00,57.7,54.1,29.49,South,180,5.0,11.0,88,0.00,,,0.00,meteohub,2013-08-01 06:40:00,
2013-07-31 23:45:00,57.7,54.1,29.50,South,180,5.0,8.0,88,0.00,,,0.00,meteohub,2013-08-01 06:45:00,
2013-07-31 23:50:00,57.6,54.0,29.50,South,180,6.0,9.0,88,0.00,,,0.00,meteohub,2013-08-01 06:50:00,
2013-07-31 23:56:00,57.6,54.0,29.50,South,180,3.0,9.0,88,0.00,,,0.00,meteohub,2013-08-01 06:56:00,